Location: ??? ????
(31.1908°N, 45.5937°E)
Time: 23:47:43
(UTC+00:00)

Daily predictions for brighter satellites

Satellite Brightness Start Highest point End
(mag) Time Altitude Azimuth Time Altitude Azimuth Time Altitude Azimuth
ATLAS 2AS CENTAUR R/B 4.3 15:12:52 10° N 15:18:00 19° NE 15:22:51 10° E
Cosmos 1378 4.1 15:16:24 10° NNE 15:19:37 26° E 15:22:47 10° SE
CZ-4 R/B 4.4 15:15:51 10° SSE 15:19:58 76° ENE 15:24:07 10° N
Okean-O 4.4 15:16:48 10° SSW 15:20:55 38° W 15:25:03 10° NNW
Cosmos 2219 Rocket 3.7 15:18:23 10° NNE 15:21:52 16° ENE 15:25:19 10° E
Cosmos 1975 Rocket 3.8 15:19:36 10° NNW 15:24:01 62° W 15:28:23 10° S
COSMOS 2428 4.1 15:21:13 10° NNE 15:25:05 18° ENE 15:28:57 10° ESE
Orbus 7S? 4.0 15:24:01 10° S 15:27:05 41° ESE 15:32:58 10° NE
Cosmos 2322 4.3 15:22:22 10° N 15:27:36 36° ENE 15:32:48 10° SE
Cosmos 1939 Rocket 3.7 15:27:58 10° SE 15:31:15 27° ENE 15:34:31 10° NNE
Cosmos 2360 Rocket 2.2 15:28:28 10° NNW 15:34:08 73° ENE 15:39:46 10° SSE
Meteor 1-12 Rocket 4.3 15:31:11 10° S 15:36:50 59° E 15:42:25 10° NNE
Envisat 3.8 15:34:45 10° S 15:39:43 56° W 15:44:42 10° NNW
CZ-2D R/B 3.6 15:36:20 10° SSE 15:39:55 42° ENE 15:43:31 10° N
Cosmos 2219 3.8 15:35:01 10° SSE 15:40:05 33° ESE 15:45:09 10° NE
Cosmos 2227 Rocket 3.5 15:36:56 10° SE 15:40:28 17° E 15:44:00 10° ENE
Lacrosse 5 rocket 2.6 15:38:12 10° SSE 15:40:32 16° ESE 15:41:57 14° E
Cosmos 2184 Rocket 4.1 15:35:41 10° N 15:41:47 53° E 15:47:54 10° SSE
Okean 1 Rocket 3.4 15:39:11 10° SSE 15:43:15 42° E 15:47:20 10° NNE
Meteor 2-9 Rocket 4.3 15:38:14 10° S 15:44:02 89° ESE 15:49:47 10° N
Cosmos 405 3.3 15:43:32 10° NNW 15:47:00 69° W 15:50:26 10° S
ASTEX 1 4.1 15:45:24 10° NNE 15:49:41 30° E 15:53:57 10° SSE
Meteor 1-21 4.2 15:44:20 10° N 15:49:53 63° E 15:55:28 10° SSE
Cosmos 2297 Rocket 3.2 15:46:55 10° SSE 15:51:17 23° E 15:55:40 10° NE
Cosmos 2251 Rocket 3.6 15:46:34 10° N 15:51:52 57° ENE 15:57:06 10° SSE
SL-16 R/B 4.5 15:49:34 10° NW 15:54:12 26° WSW 15:58:49 10° SSW
PSLV R/B 2.5 15:56:08 10° SW 15:58:47 76° SSE 15:59:59 29° ENE
IRS-1A Rocket 4.4 15:53:15 10° SSE 15:58:52 56° ENE 16:04:23 10° N
Meteor 2-15 Rocket 4.4 15:55:03 10° S 16:01:10 83° E 16:07:20 10° N
GP-B 3.0 15:57:38 10° N 16:02:05 77° E 16:06:30 10° S
Nadezhda 1 Rocket 3.9 15:57:19 10° S 16:03:22 82° E 16:09:27 10° N
DELTA 2 R/B (1) 3.6 15:58:34 10° WSW 16:04:11 90° NNW 16:08:47 16° ENE
Cosmos 1842 3.4 16:02:03 10° N 16:05:59 78° W 16:09:54 10° S
GEOS 3 Rocket 4.2 16:03:09 21° ESE 16:05:59 38° NE 16:10:41 10° NNW
Cosmos 1544 3.1 16:02:33 10° S 16:06:06 79° W 16:09:42 10° N
Cosmos 2327 Rocket 4.4 16:05:23 10° N 16:11:35 72° E 16:17:39 10° SSE
USA 186 3.2 16:12:54 24° NE 16:12:54 24° NE 16:15:00 10° NNE
SAR-Lupe-2 3.6 16:08:50 10° N 16:12:24 81° WNW 16:15:57 10° SSW
YAOGAN 1 4.4 16:08:49 10° SSW 16:12:42 33° W 16:16:36 10° NNW
Cosmos 1025 Rocket 3.1 16:09:19 10° N 16:13:34 75° W 16:17:48 10° S
Cosmos 1536 Rocket 4.1 16:10:01 10° NNW 16:14:15 59° W 16:18:29 10° S
ISS -3.8 16:14:06 10° SW 16:17:24 79° NW 16:18:57 29° NE
GPS 2-05 Rocket1 2.0 16:14:42 10° WNW 16:17:26 83° SSW 16:17:32 80° SSE
Cosmos 2333 Rocket 2.3 16:13:13 10° N 16:18:48 55° ENE 16:21:58 25° SE
Lacrosse 4 Rocket 4.3 16:18:08 10° WNW 16:20:22 15° WSW 16:22:37 10° SW
Ariane Rocket 3.2 16:16:56 10° S 16:21:57 71° WSW 16:27:00 10° NNW
Cosmos 2237 Rocket 3.4 16:24:25 10° N 16:28:49 24° ENE 16:28:49 24° ENE
Cosmos 2056 Rocket 3.5 16:24:40 10° S 16:30:00 64° ESE 16:35:22 10° NNE
deb Centaur AC-2 3.9 16:26:44 10° W 16:31:02 76° S 16:31:58 53° ESE
Cosmos 1624 Rocket 3.9 16:37:00 10° SSW 16:42:12 88° ESE 16:47:25 10° NNE
Cosmos 407 Rocket 4.4 16:37:40 10° N 16:41:18 31° NE 16:41:18 31° NE
COSMOS 2455 3.5 16:38:14 10° NW 16:44:04 54° WSW 16:48:55 15° S
Cosmos 2181 Rocket 3.9 16:38:14 10° S 16:44:19 66° E 16:50:33 10° NNE
Cosmos 2341 Rocket 3.8 16:44:13 10° N 16:50:26 69° E 16:52:24 44° SSE
SPOT 3 Rocket 3.4 16:50:32 60° SE 16:51:25 78° ENE 16:56:34 10° N
ADEOS Rocket 3.4 16:47:45 10° NNE 16:55:18 79° ESE 17:03:05 10° S
SJ-6B 3.2 16:56:30 64° NNW 16:56:30 64° NNW 17:00:03 10° NNW
SL-16 R/B 4.3 16:55:24 10° NNE 16:56:22 12° NNE 16:56:22 12° NNE
Aureole 1 Rocket 4.4 16:56:21 10° NW 17:00:19 31° W 17:01:24 26° SW
Cosmos 1707 3.6 16:57:51 10° NNW 17:01:18 49° WNW 17:01:18 49° WNW
Cosmos 2219 Rocket 2.7 17:00:40 10° NNW 17:06:06 55° WSW 17:08:05 36° SSW
COSMOS 2428 3.4 17:04:07 10° NNW 17:09:35 50° WSW 17:11:43 33° SSW
ATLAS 2AS CENTAUR R/B 2.7 17:02:26 10° NNW 17:09:54 83° WSW 17:11:28 58° SSE
Cosmos 2218 Rocket 4.3 17:04:21 10° N 17:09:28 50° NE 17:09:28 50° NE
Cosmos 2366 rocket 4.4 17:09:23 10° N 17:14:12 48° NE 17:14:12 48° NE
Lacrosse 5 rocket 3.5 17:16:13 10° WSW 17:17:44 20° W 17:17:44 20° W
H-2A R/B 2.7 17:23:44 49° NW 17:23:44 49° NW 17:27:27 10° NNW
Cosmos 2227 Rocket 3.0 17:18:35 10° SW 17:24:00 48° WNW 17:29:30 10° N
Resurs 01 Rocket 4.0 17:28:09 16° N 17:28:09 16° N 17:29:03 10° N
SL-8 Rocket 4.0 17:20:16 10° N 17:25:53 74° NNW 17:25:53 74° NNW
ARGOS 3.7 17:30:59 54° NW 17:30:59 54° NW 17:35:20 10° NNW
Cosmos 2297 Rocket 3.6 17:29:52 10° SW 17:35:02 36° WNW 17:40:13 10° N
CZ-3A R/B 4.2 17:08:31 10° WSW 18:04:46 64° S 18:05:13 64° S
Cosmos 2237 Rocket 4.1 18:07:50 10° NW 18:10:40 26° WNW 18:10:40 26° WNW
CENTAUR R/B 4.4 23:11:05 23° NE 23:11:05 23° NE 23:13:31 10° NE
Cosmos 1943 Rocket 4.2 23:44:56 20° NNE 23:44:56 20° NNE 23:46:36 10° NNE
Hubble Space Telescope 3.9 23:59:28 11° E 23:59:28 11° E 23:59:35 10° E
